sat.trackr.live / text

‹ back to catalog

STARLINK-2370

NORAD 47910 · 2021-021BC

PAYLOAD ACTIVE UNKNOWN

§ Identity

Operator
Country
US
Launch date
2021-03-14
Launch site
AFETR
Launch vehicle
Mass (kg)
RCS (m²)

Purposes: comms

External: N2YO · Heavens-Above · Gunter

§ Orbital elements

Epoch: 2026-09-14T14:22:18.882624Z

Period
94.01 min
Inclination
53.1592°
Eccentricity
0.0001181
Mean motion
15.31708318 rev/d
Perigee alt
469.9 km
Apogee alt
471.5 km
Semi-major
6,848.9 km
B*
5.9321e-5
RAAN
108.9852°
Arg perigee
87.2716°
Mean anomaly
272.8421°
Rev number
30,520

§ Raw data

STARLINK-23701 47910U 21021BC  26257.59882966  .00001477  00000+0  59321-4 0  99942 47910  53.1592 108.9852 0001181  87.2716 272.8421 15.31708318305206

JSON: /api/v1/satellites/47910 · /tle

For live sub-satellite position, see the globe view (requires WebGL).

§ Visibility from observer

Set your observer location to see the next 7 days of passes ≥ 10°. The values pass through the URL so the page stays shareable.

No JS? Fill the form by hand. The geolocation button needs JavaScript.